Kahului, HI

9:59 PM HST on February 20, 2018 (GMT -1000)
Kahului

Weather History for PHOG - December, 2011

Change the Weather History Date:

Monday, December 19, 2011

  Actual Average Record
Temperature  
Mean Temperature 75 °F 73 °F  
Max Temperature 81 °F 81 °F 87 °F (1980)
Min Temperature 69 °F 65 °F 54 °F (1950)
Degree Days  
Heating Degree Days 0 0  
Month to date heating degree days 0 0  
Since 1 July heating degree days 0 0  
Cooling Degree Days 10 8  
Month to date cooling degree days 170 167  
Year to date cooling degree days 3812 3874  
Growing Degree Days 24 (Base 50)    
Moisture  
Dew Point 63 °F    
Average Humidity 69    
Maximum Humidity 79    
Minimum Humidity 58    
Precipitation  
Precipitation 0.00 in 0.12 in 0.68 in (1964)
Month to date precipitation 0.00 2.05  
Year to date precipitation 10.60 16.53  
Snow  
Snow 0.00 in - - ()
Month to date snowfall 0.0  
Since 1 July snowfall 0.0  
Snow Depth 0.00 in    
Sea Level Pressure  
Sea Level Pressure 30.05 in    
Wind  
Wind Speed 17 mph (NE)    
Max Wind Speed 29 mph    
Max Gust Speed 37 mph    
Visibility 10 miles    
Events Rain    
T = Trace of Precipitation, MM = Missing Value Source: NWS Daily Summary

Daily Weather History Graph

Daily Weather History Graph

Search for Another Location

Airport or City:

Trip Planner

Search our weather history database for the weather conditions in past years. The results will help you decide how hot, cold, wet, or windy it might be!

Date:

Astronomy

Dec. 19, 2011 Rise Set
Actual Time 6:56 AM HST 5:48 PM HST
Civil Twilight 6:32 AM HST 6:13 PM HST
Nautical Twilight 6:05 AM HST 6:40 PM HST
Astronomical Twilight 5:37 AM HST 7:08 PM HST
Moon 1:45 AM HST (12/19) 1:32 PM HST (12/19)
Length of Visible Light 11h 40m
Length of Day
10h 51m
Waning Crescent, 29% of the Moon is Illuminated
Dec 19
Waning Crescent
Dec 24
New
Dec 31
First Quarter
Jan 8
Full
Jan 15
Last Quarter

Hourly Weather History & Observations

Time (HST) Temp. Dew Point Humidity Pressure Visibility Wind Dir Wind Speed Gust Speed Precip Events Conditions
12:54 AM 71.1 °F 63.0 °F 75% 30.06 in 10.0 mi ENE 18.4 mph 29.9 mph N/A Rain Light Rain
1:14 AM 69.8 °F 62.6 °F 78% 30.03 in 10.0 mi NE 16.1 mph 26.5 mph N/A   Mostly Cloudy
1:34 AM 69.8 °F 62.6 °F 78% 30.02 in 10.0 mi NE 15.0 mph 20.7 mph N/A Rain Light Rain
1:54 AM 71.1 °F 64.0 °F 78% 30.03 in 9.0 mi ENE 13.8 mph 21.9 mph N/A Rain Light Rain
2:09 AM 71.6 °F 64.4 °F 78% 30.00 in 10.0 mi NE 13.8 mph 20.7 mph N/A Rain Light Rain
2:54 AM 70.0 °F 63.0 °F 78% 30.01 in 10.0 mi ENE 20.7 mph 27.6 mph N/A Rain Light Rain
3:03 AM 69.8 °F 62.6 °F 78% 30.00 in 10.0 mi NE 16.1 mph 26.5 mph N/A Rain Light Rain
3:54 AM 71.1 °F 64.0 °F 78% 30.00 in 10.0 mi ENE 13.8 mph - N/A   Mostly Cloudy
4:54 AM 70.0 °F 62.1 °F 76% 30.02 in 10.0 mi ENE 19.6 mph 29.9 mph N/A   Overcast
5:54 AM 70.0 °F 63.0 °F 78% 30.04 in 10.0 mi NE 13.8 mph 19.6 mph N/A Rain Light Rain
6:54 AM 70.0 °F 63.0 °F 78% 30.05 in 10.0 mi NE 13.8 mph - N/A   Scattered Clouds
7:54 AM 71.1 °F 63.0 °F 75% 30.07 in 10.0 mi ENE 13.8 mph 21.9 mph N/A   Scattered Clouds
8:54 AM 73.9 °F 64.0 °F 71% 30.08 in 10.0 mi NE 15.0 mph - N/A   Scattered Clouds
9:54 AM 77.0 °F 62.1 °F 60% 30.08 in 10.0 mi ENE 21.9 mph 28.8 mph N/A   Partly Cloudy
10:54 AM 79.0 °F 62.1 °F 56% 30.08 in 10.0 mi NE 20.7 mph 33.4 mph N/A   Partly Cloudy
11:54 AM 79.0 °F 63.0 °F 58% 30.06 in 10.0 mi NE 24.2 mph 36.8 mph N/A   Partly Cloudy
12:54 PM 79.0 °F 62.1 °F 56% 30.02 in 10.0 mi ENE 24.2 mph 32.2 mph N/A   Partly Cloudy
1:54 PM 79.0 °F 63.0 °F 58% 30.00 in 10.0 mi NE 20.7 mph 32.2 mph N/A   Scattered Clouds
2:54 PM 78.1 °F 62.1 °F 58% 30.01 in 10.0 mi NE 25.3 mph 35.7 mph N/A   Scattered Clouds
3:54 PM 77.0 °F 62.1 °F 60% 30.01 in 10.0 mi NE 17.3 mph 32.2 mph N/A   Partly Cloudy
4:54 PM 75.9 °F 62.1 °F 62% 30.03 in 10.0 mi NE 17.3 mph 24.2 mph N/A   Scattered Clouds
5:54 PM 73.9 °F 62.1 °F 66% 30.06 in 10.0 mi NE 13.8 mph 19.6 mph N/A   Overcast
6:54 PM 73.0 °F 63.0 °F 71% 30.09 in 10.0 mi NE 16.1 mph 23.0 mph N/A   Partly Cloudy
7:54 PM 73.9 °F 62.1 °F 66% 30.11 in 10.0 mi NE 13.8 mph - N/A   Mostly Cloudy
8:54 PM 73.0 °F 63.0 °F 71% 30.11 in 10.0 mi NE 16.1 mph 25.3 mph N/A   Mostly Cloudy
9:54 PM 73.0 °F 63.0 °F 71% 30.12 in 10.0 mi NE 13.8 mph 23.0 mph N/A   Mostly Cloudy
10:54 PM 71.1 °F 63.0 °F 75% 30.11 in 10.0 mi NE 17.3 mph 24.2 mph N/A Rain Light Rain
11:54 PM 71.1 °F 64.0 °F 78% 30.09 in 10.0 mi NE 10.4 mph - N/A   Partly Cloudy